EW3359 Weather Reports


time (UTC)temp
C
wind
direction
speed
KPH
gust
KPH
rain 1hr
cm
rain 24hr
cm
rain mn
cm
humidity
%
barometer
mb
20260505191557 13 192 0.0 0.0 0.00 0.08 0.08 85 1007.6
20260505184557 13 192 0.0 1.6 0.00 0.08 0.08 85 1007.1
20260505183055 13 190 0.0 3.2 0.00 0.08 0.08 83 1007.2
20260505181555 13 156 0.0 1.6 0.00 0.08 0.08 83 1007.0
20260505180055 13 155 0.0 0.0 0.00 0.08 0.08 82 1006.8
20260505174554 13 155 0.0 1.6 0.00 0.08 0.08 81 1006.8
20260505173054 14 155 0.0 0.0 0.00 0.08 0.08 79 1006.8
20260505171553 14 155 0.0 0.0 0.00 0.08 0.08 77 1006.6
20260505170053 13 155 0.0 0.0 0.00 0.08 0.08 81 1006.6
20260505164609 13 155 0.0 0.0 0.03 0.08 0.08 81 1006.6
20260505163053 14 155 0.0 3.2 0.03 0.08 0.08 82 1006.9
20260505161557 13 121 1.6 11.3 0.05 0.08 0.08 86 1007.0
20260505153051 12 202 0.0 6.4 0.05 0.05 0.05 86 1007.2
20260505151550 13 216 6.4 17.7 0.03 0.03 0.03 82 1007.1
20260505124548 18 127 6.4 24.1 0.00 0.00 0.00 42 1005.3
20260505123043 18 136 1.6 19.3 0.00 0.00 0.00 40 1005.0
20260505121544 18 130 4.8 22.5 0.00 0.00 0.00 39 1004.8
20260505120049 19 115 1.6 19.3 0.00 0.00 0.00 41 1004.7
20260505114545 19 129 3.2 22.5 0.00 0.00 0.00 40 1004.8
20260505113040 20 148 4.8 20.9 0.00 0.00 0.00 41 1004.8
20260505111539 20 51 1.6 20.9 0.00 0.00 0.00 39 1004.9
20260505101528 18 132 0.0 6.4 0.00 0.00 0.00 53 1005.9
20260505100026 17 317 0.0 3.2 0.00 0.00 0.00 54 1006.1
20260505094527 17 310 0.0 3.2 0.00 0.00 0.00 55 1006.2
20260505093017 16 169 0.0 3.2 0.00 0.00 0.00 67 1006.5
20260505091514 16 168 0.0 3.2 0.00 0.00 0.00 68 1006.8
20260505090010 14 163 0.0 0.0 0.00 0.00 0.00 87 1006.9
20260505084507 12 164 0.0 0.0 0.00 0.00 0.00 86 1007.3
20260505083002 12 164 0.0 0.0 0.00 0.00 0.00 87 1007.5
20260505081501 12 164 0.0 1.6 0.00 0.00 0.00 88 1007.7
20260505080108 12 164 0.0 1.6 0.00 0.00 0.00 88 1007.9
20260505074557 11 164 0.0 1.6 0.00 0.00 0.00 89 1008.0
20260505073055 11 164 0.0 1.6 0.00 0.00 0.00 90 1008.2
20260505071554 11 165 0.0 1.6 0.00 0.00 0.00 89 1008.3
20260505070053 11 214 0.0 0.0 0.00 0.00 0.00 88 1008.3
20260505064545 11 215 0.0 0.0 0.00 0.00 0.00 87 1008.4
20260505063101 11 215 0.0 0.0 0.00 0.00 0.00 86 1008.2
20260505061545 11 215 0.0 0.0 0.00 0.00 0.00 86 1008.4
20260505060042 11 215 0.0 0.0 0.00 0.00 0.00 86 1008.4
20260505054541 11 216 0.0 0.0 0.00 0.00 0.00 86 1008.2
20260505053038 11 216 0.0 0.0 0.00 0.00 0.00 85 1008.1
20260505051536 11 216 0.0 1.6 0.00 0.00 0.00 85 1008.0
20260505041547 11 211 0.0 1.6 0.00 0.00 0.00 80 1007.8
20260505040039 11 209 0.0 6.4 0.00 0.00 0.00 76 1007.5
20260505034530 12 193 0.0 3.2 0.00 0.00 0.00 71 1007.5
20260505033025 12 271 0.0 1.6 0.00 0.00 0.00 69 1007.3
20260505031536 12 270 0.0 1.6 0.00 0.00 0.00 69 1007.6
20260505030024 12 271 0.0 1.6 0.00 0.00 0.00 68 1007.3
20260505024522 12 271 0.0 1.6 0.00 0.00 0.00 69 1007.5
20260505023020 12 271 0.0 0.0 0.00 0.00 0.00 70 1007.8
20260505021520 12 271 0.0 0.0 0.00 0.00 0.00 67 1007.9
20260505020018 12 290 0.0 1.6 0.00 0.00 0.00 67 1007.9
20260505014517 12 288 0.0 1.6 0.00 0.00 0.00 69 1008.3
20260505013014 12 286 0.0 1.6 0.00 0.00 0.00 66 1008.6
20260505011514 13 288 0.0 1.6 0.00 0.00 0.00 63 1008.6
20260505010019 13 289 0.0 1.6 0.00 0.00 0.00 60 1008.6
20260505004513 13 288 0.0 1.6 0.00 0.00 0.00 65 1008.9
20260505003011 13 288 0.0 1.6 0.00 0.00 0.00 65 1009.3
20260505001509 13 287 0.0 0.0 0.00 0.00 0.00 68 1009.5
20260505000010 13 287 0.0 0.0 0.00 0.00 0.00 60 1009.8
20260504234508 13 287 0.0 0.0 0.00 0.00 0.00 65 1010.0
20260504233003 13 287 0.0 1.6 0.00 0.00 0.00 65 1010.5
20260504231604 12 288 0.0 0.0 0.00 0.00 0.00 72 1010.5
20260504230058 12 285 0.0 0.0 0.00 0.00 0.00 73 1010.6
20260504224602 12 285 0.0 0.0 0.00 0.00 0.00 75 1010.8
20260504223124 12 285 0.0 6.4 0.00 0.00 0.00 75 1010.7
20260504221554 12 225 0.0 0.0 0.00 0.00 0.00 75 1010.9
20260504220049 12 225 0.0 0.0 0.00 0.00 0.00 74 1010.8
20260504214550 12 225 0.0 0.0 0.00 0.00 0.00 74 1010.8
20260504213057 12 225 0.0 1.6 0.00 0.00 0.00 74 1010.9
20260504211547 12 164 0.0 0.0 0.00 0.00 0.00 75 1011.1
20260504210047 12 164 0.0 1.6 0.00 0.00 0.00 79 1011.1
20260504204549 12 167 0.0 0.0 0.00 0.00 0.00 79 1011.2
20260504203059 12 167 0.0 0.0 0.00 0.00 0.00 79 1011.3
20260504201549 13 167 0.0 0.0 0.00 0.00 0.00 79 1011.2
20260504200045 13 167 0.0 0.0 0.00 0.00 0.00 79 1011.4
20260504194545 13 167 0.0 0.0 0.00 0.00 0.00 78 1011.2
20260504193044 13 167 0.0 0.0 0.00 0.00 0.00 78 1011.1